Flag for Canada Weather past 2 weeks in Toronto, Ontario, Canada

34 °F

Passing clouds.

Feels Like: 31 °F
Forecast: 28 / 44 °F
Wind: 3 mph from West

Location: Toronto Pearson International Airport

Current Time: Nov 24, 2015 at 11:22:27 PM

Latest Report: Nov 24, 2015 at 10:00 PM

Visibility: 15 mi

Pressure: 30.47 "Hg

Humidity: 81%

Dew point: 28 °F

Location of TorontoLocation

Historic Weather in Toronto — Graph


Toronto temperature yesterday

Maximum temperature yesterday: 36 °F (at 1:00 PM)
Minimum temperature yesterday: 21 °F (at 2:00 AM)
Average temperature yesterday: 29 °F

Past Weeks' High & Low Weather Summary

High61 °F (Nov 19, 3:00 AM)100% (Nov 11, 7:00 AM)30.45 "Hg (Nov 11, 7:00 AM)
Low21 °F (Nov 23, 2:00 AM)39% (Nov 20, 1:00 PM)29.29 "Hg (Nov 12, 1:00 PM)
Average42 °F72%30.03 "Hg
* Reported Nov 9 9:00 PM — Nov 24 9:00 PM, Toronto, Weather by CustomWeather, © 2015

Note: Actual official high and low records may vary slightly from our data, if they occured in-between our weather recording intervals... More about our weather records


Toronto weather history for previous 24 hours

Time TempWeatherWind HumidityBarometerVisibility
9:00 PM
Tue, Nov 24
34 °FPassing clouds.5 mph81%30.45 "Hg15 mi
8:00 PM34 °FPartly cloudy.6 mph81%30.43 "Hg15 mi
7:00 PM37 °FPartly cloudy.10 mph75%30.41 "Hg15 mi
6:00 PM36 °FPassing clouds.9 mph81%30.39 "Hg15 mi
5:00 PM39 °FPartly cloudy.10 mph65%30.38 "Hg15 mi
4:00 PM41 °FPartly sunny.13 mph61%30.35 "Hg15 mi
3:00 PM41 °FBroken clouds.14 mph66%30.32 "Hg15 mi
2:00 PM43 °FBroken clouds.14 mph61%30.31 "Hg15 mi
1:00 PM43 °FBroken clouds.18 mph61%30.30 "Hg15 mi
12:00 PM41 °FScattered clouds.13 mph66%30.29 "Hg15 mi
11:00 AM39 °FPartly sunny.9 mph75%30.30 "Hg12 mi
10:00 AM36 °FPartly sunny.7 mph81%30.28 "Hg10 mi
9:00 AM34 °FPartly sunny.6 mph81%30.26 "Hg15 mi
8:00 AM30 °FPartly sunny.6 mph86%30.24 "Hg10 mi
7:00 AM32 °FPassing clouds.6 mph87%30.22 "Hg10 mi
6:00 AM30 °FPassing clouds.6 mph86%30.19 "Hg10 mi
5:00 AM32 °FLight snow. Overcast.8 mph87%30.17 "Hg9 mi
4:00 AM32 °FLight snow. Fog.8 mph87%30.15 "Hg2 mi
3:00 AM32 °FLight snow. Overcast.5 mph87%30.15 "Hg9 mi
2:00 AM32 °FLight snow. Overcast.3 mph87%30.13 "Hg8 mi
1:00 AM32 °FLight snow. Overcast.3 mph87%30.12 "Hg8 mi
12:00 AM32 °FLight snow. Overcast.5 mph87%30.13 "Hg8 mi
11:00 PM
Mon, Nov 23
32 °FLight snow. Overcast.7 mph87%30.13 "Hg9 mi
Weather by CustomWeather, © 2015

See weather overviewHow to use our weather pages